Change the Weather History Date:

Sunday, May 4, 2014

  Actual Average Record
Temperature  
Mean Temperature 42 °F 37 °F  
Max Temperature 51 °F 48 °F 64 °F (2004)
Min Temperature 32 °F 25 °F 14 °F (2001)
Degree Days  
Heating Degree Days 23 28  
Month to date heating degree days 96 115  
Since 1 July heating degree days 10636 10366  
Cooling Degree Days 0 0  
Month to date cooling degree days 0 0  
Year to date cooling degree days 0 0  
Moisture  
Dew Point 21 °F    
Average Humidity 51    
Maximum Humidity 75    
Minimum Humidity 26    
Precipitation  
Precipitation 0.00 in 0.07 in 0.25 in (2003)
Month to date precipitation 0.00 0.28  
Year to date precipitation 13.44 7.09  
Sea Level Pressure  
Sea Level Pressure 29.78 in    
Wind  
Wind Speed 6 mph (WSW)    
Max Wind Speed 21 mph    
Max Gust Speed 35 mph    
T = Trace of Precipitation, MM = Missing Value Source: NWS Daily Summary

Daily Weather History Graph

Daily Weather History Graph

Search for Another Location

Airport or City:

Trip Planner

Search our weather history database for the weather conditions in past years. The results will help you decide how hot, cold, wet, or windy it might be!

Date:

Astronomy

May. 04, 2014 Rise Set
Actual Time 6:07 AM MDT 8:29 PM MDT
Civil Twilight 5:35 AM MDT 9:02 PM MDT
Nautical Twilight 4:55 AM MDT 9:43 PM MDT
Astronomical Twilight 4:09 AM MDT 10:28 PM MDT
Moon 10:34 AM MDT (5/4) 12:38 AM MDT (5/4)
Length of Visible Light 15h 27m
Length of Day
14h 22m
Waxing Crescent, 28% of the Moon is Illuminated
May 4
Waxing Crescent
May 6
First Quarter
May 14
Full
May 21
Last Quarter
May 28
New

Hourly Weather History & Observations

Time (MDT) Temp. Windchill Dew Point Humidity Pressure Visibility Wind Dir Wind Speed Gust Speed Precip Events Conditions
12:56 AM 34.0 °F - 27.0 °F 75% 29.84 in - Calm Calm - N/A   Unknown
1:56 AM 33.1 °F 28.7 °F 26.1 °F 75% 29.79 in - NNW 4.6 mph - N/A   Unknown
2:56 AM 33.1 °F - 26.1 °F 75% 29.76 in - Calm Calm - N/A   Unknown
3:56 AM 33.1 °F - 27.0 °F 78% 29.77 in - Calm Calm - N/A   Unknown
4:56 AM 48.0 °F - 18.0 °F 30% 29.68 in - West 8.1 mph 19.6 mph N/A   Unknown
5:56 AM 46.9 °F - 18.0 °F 32% 29.71 in - Variable 5.8 mph - N/A   Unknown
6:56 AM 48.0 °F - 18.0 °F 30% 29.68 in - Variable 6.9 mph - N/A   Unknown
7:56 AM 46.9 °F - 18.0 °F 32% 29.70 in - Variable 5.8 mph - N/A   Unknown
8:56 AM 46.9 °F - 17.1 °F 30% 29.72 in - WSW 9.2 mph 17.3 mph N/A   Unknown
9:56 AM 46.9 °F - 18.0 °F 32% 29.74 in - West 13.8 mph 28.8 mph N/A   Unknown
10:56 AM 45.0 °F 40.1 °F 21.0 °F 39% 29.81 in - WSW 9.2 mph 24.2 mph N/A   Unknown
11:56 AM 46.9 °F - 21.0 °F 36% 29.81 in - SW 10.4 mph 17.3 mph N/A   Unknown
12:56 PM 48.9 °F - 19.0 °F 31% 29.81 in - West 11.5 mph 23.0 mph N/A   Unknown
1:56 PM 48.9 °F - 18.0 °F 29% 29.81 in - WSW 11.5 mph 23.0 mph N/A   Unknown
2:56 PM 50.0 °F - 19.9 °F 31% 29.80 in - West 10.4 mph 21.9 mph N/A   Unknown
3:56 PM 50.0 °F - 23.0 °F 35% 29.79 in - Variable 6.9 mph 23.0 mph N/A   Unknown
6:56 PM 48.9 °F - 16.0 °F 27% 29.74 in - WSW 8.1 mph 24.2 mph N/A   Unknown
7:56 PM 46.9 °F - 17.1 °F 30% 29.76 in - WSW 9.2 mph - N/A   Unknown
8:56 PM 45.0 °F 41.8 °F 19.0 °F 36% 29.79 in - Variable 5.8 mph - N/A   Unknown
9:56 PM 39.9 °F 36.7 °F 21.0 °F 47% 29.84 in - West 4.6 mph - N/A   Unknown
10:56 PM 35.1 °F 32.2 °F 25.0 °F 67% 29.87 in - WNW 3.5 mph - N/A   Unknown
11:56 PM 33.1 °F - 26.1 °F 75% 29.86 in - Calm Calm - N/A   Unknown